Location: Strawberry
(45.6646°N, 111.9596°W)
Time: 17:37:42
(UTC+00:00)

SR - Pass Details

Date: 09 October 2022
Orbit: 577 x 874 km, 66.7° (Epoch: 05 December)

Event Time Altitude Azimuth Distance (km) Brightness Sun altitude
Exits shadow 11:58:24 11° 318° (NW) 2,249 ? -17.9°
Maximum altitude 12:03:19 51° 245° (WSW) 917 ? -17.1°
Drops below altitude 10° 12:08:00 10° 170° (S) 2,124 ? -16.3°
Sets 12:10:15 0° 165° (SSE) 2,989 ? -15.9°
